Regional Weather Roundup
Issued by NWS

Home | Current Version | Previous Version | Graphics & Text | Print | Product List | Glossary On
Versions: 1 2 3 4 5 6 7 8 9 10 11 12 13 14 15 16 17 18 19 20 21 22 23 24 25 26 27 28 29 30 31 32 33 34 35 36 37 38 39 40 41 42 43 44 45 46 47 48 49 50
000
ASUS43 KLSX 241959
RWRMO

WEATHER SUMMARY FOR MISSOURI
NATIONAL WEATHER SERVICE SPRINGFIELD MO
300 PM CDT FRI APR 24 2015

NOTE: "FAIR" INDICATES FEW OR NO CLOUDS BELOW 12,000 FEET WITH NO
       SIGNIFICANT WEATHER AND/OR OBSTRUCTIONS TO VISIBILITY.
       CURRENT SKY AND/OR WEATHER CONDITIONS ARE NOT AVAILABLE FOR
       CHILLICOTHE AND FARMINGTON.

MOZ001>031-035>038-043-044-053-054-242100-
...NORTHERN AND WESTERN MISSOURI...

CITY           SKY/WX    TMP DP  RH WIND       PRES   REMARKS
KANSAS CTY INT CLOUDY    58  52  80 S15       29.71F
KANSAS C DTWN  CLOUDY    59  52  77 SE10      29.71F
LEE`S SUMMIT   CLOUDY    57  51  80 S9        29.73F
ST JOSEPH      CLOUDY    61  51  70 SE12      29.69F
CHILLICOTHE      N/A     61  51  70 S12G18    29.75F
KIRKSVILLE     CLOUDY    65  47  52 S17G24    29.76F

$$
MOZ066>068-077>081-088>096-101>105-242100-
...SOUTHWEST MISSOURI...

CITY           SKY/WX    TMP DP  RH WIND       PRES   REMARKS
SPRINGFIELD    CLOUDY    59  50  72 SE24G32   29.79F
JOPLIN         CLOUDY    70  58  65 S15G23    29.73F

$$
MOZ032>034-039>042-045>050-055>058-069>072-242100-
...CENTRAL MISSOURI...

CITY           SKY/WX    TMP DP  RH WIND       PRES   REMARKS
COLUMBIA       CLOUDY    64  46  52 S20G29    29.79F
JEFFERSON CITY CLOUDY    64  45  49 SE15G22   29.81F
ROLLA          CLOUDY    58  45  62 S20G28    29.83F
SEDALIA        CLOUDY    59  51  75 S17       29.78F
OSAGE BEACH    CLOUDY    61  46  59 S17       29.82F

$$
MOZ051-052-059>065-242100-
...EAST CENTRAL MISSOURI...

CITY           SKY/WX    TMP DP  RH WIND       PRES   REMARKS
ST LOUIS INTL  NOT AVBL
SPIRIT OF STL  PTSUNNY   66  37  34 S13G25    29.87F
ST CHARLES     CLOUDY    63  37  38 S17       29.88F

$$
MOZ072>076-082>087-097>100-106>115-242100-
...SOUTH CENTRAL AND SOUTHEAST MISSOURI...

CITY           SKY/WX    TMP DP  RH WIND       PRES   REMARKS
CAPE GIRARDEAU CLOUDY    57  43  59 S6        29.97F
FARMINGTON     CLOUDY    57  39  51 S20G25    29.97F
POPLAR BLUFF   CLOUDY    53  47  79 SE5       29.96F
WEST PLAINS    CLOUDY    52  45  77 SE9       29.92F

$$


USA.gov is the U.S. government's official web portal to all federal, state and local government web resources and services.